Home   Weather   Washington DC   Past weeks

Flag for USA Past Weather in Washington DC, USA — Yesterday and Last 2 Weeks

52 °F

High level clouds.

Feels Like: 50 °F
Forecast: 36 / 56 °F
Wind: 6 mph from Northeast

Location: Reagan National Airport

Current Time: Oct 26, 2016 at 11:25:39 AM

Latest Report: Oct 26, 2016 at 10:52 AM

Visibility: 10 mi

Pressure: 30.48 "Hg

Humidity: 53%

Dew Point: 35 °F

Location of Washington DCLocation

Past Weather in Washington DC — Graph


Washington DC Temperature Yesterday

Maximum temperature yesterday: 64 °F (at 3:52 PM)
Minimum temperature yesterday: 48 °F (at 6:52 AM)
Average temperature yesterday: 55 °F

High & Low Weather Summary for the Past Weeks

High87 °F (Oct 19, 1:52 PM)100% (Oct 13, 3:52 AM)30.49 "Hg (Oct 13, 3:52 AM)
Low42 °F (Oct 26, 4:52 AM)33% (Oct 25, 3:52 PM)29.56 "Hg (Oct 21, 1:52 PM)
Average63 °F69%30.09 "Hg
* Reported Oct 11 9:52 AM — Oct 26 9:52 AM, Washington DC, Weather by CustomWeather, © 2016

Note: Actual official high and low records may vary slightly from our data, if they occured in-between our weather recording intervals... More about our weather records


Washington DC Weather History for the Previous 24 Hours

Scroll right to see more
Time TempWeatherWind HumidityBarometerVisibility
9:52 AM
Wed, Oct 26
49 °FPartly sunny.9 mph55%30.48 "Hg10 mi
8:52 AM48 °FPartly sunny.6 mph66%30.48 "Hg10 mi
7:52 AM45 °FPartly sunny.No wind68%30.47 "Hg10 mi
6:52 AM43 °FPassing clouds.No wind74%30.45 "Hg10 mi
5:52 AM44 °FClear.No wind68%30.43 "Hg10 mi
4:52 AM42 °FPassing clouds.6 mph76%30.43 "Hg10 mi
3:52 AM46 °FPassing clouds.3 mph66%30.41 "Hg10 mi
2:52 AM44 °FClear.10 mph73%30.42 "Hg10 mi
1:52 AM49 °FClear.No wind59%30.42 "Hg10 mi
12:52 AM49 °FPassing clouds.No wind59%30.41 "Hg10 mi
11:52 PM
Tue, Oct 25
51 °FPassing clouds.3 mph54%30.41 "Hg10 mi
10:52 PM50 °FPassing clouds.7 mph52%30.40 "Hg10 mi
9:52 PM52 °FClear.8 mph49%30.39 "Hg10 mi
8:52 PM53 °FClear.10 mph45%30.38 "Hg10 mi
7:52 PM55 °FPassing clouds.14 mph44%30.35 "Hg10 mi
6:52 PM57 °FPassing clouds.16 mph44%30.32 "Hg10 mi
5:52 PM60 °FScattered clouds.13 mph38%30.29 "Hg10 mi
4:52 PM62 °FPassing clouds.15 mph34%30.27 "Hg10 mi
3:52 PM64 °FPassing clouds.16 mph33%30.26 "Hg10 mi
2:52 PM63 °FPassing clouds.15 mph34%30.27 "Hg10 mi
1:52 PM62 °FPassing clouds.14 mph35%30.28 "Hg10 mi
12:52 PM62 °FPassing clouds.20 mph37%30.31 "Hg10 mi
11:52 AM61 °FPassing clouds.16 mph38%30.32 "Hg10 mi
Weather by CustomWeather, © 2016

See weather overviewHow to use our weather pages